Wind_Speed
16 13 12 11 12 11 10 10 10 10 11 11 11 10 11 12 12 7 12 8 6 9 9 7 8 10 10 7 6 5 7 12 16 13 10 5 10 6 4 10 10 8 11 8 11
17 15 12 11 11 11 11 10 10 10 10 10 10 10 9 12 12 16 13 11 6 15 9 10 9 12 9 10 7 11 11 14 6 12 9 6 8 9 9 12 12 11 11 13 12
18 17 14 11 10 10 10 10 10 9 9 9 9 10 8 9 9 4 4 12 12 17 9 9 10 10 9 9 10 10 14 9 8 9 7 10 12 11 10 15 14 12 10 12 11
20 18 16 13 10 9 9 9 9 9 8 8 8 8 6 5 1 3 5 16 18 10 9 9 11 11 10 11 12 10 13 10 9 6 11 12 11 12 11 14 12 11 12 12 12
24 20 17 14 12 9 8 7 7 7 7 7 7 5 3 7 4 3 11 16 10 9 11 10 11 10 12 12 10 14 9 9 10 11 11 11 14 14 13 10 13 8 10 11 9
30 28 21 16 13 10 8 7 5 5 4 5 5 1 5 8 3 5 11 13 9 12 10 8 6 6 5 8 13 5 9 9 8 11 9 11 15 9 9 7 9 11 10 9 8
28 29 30 24 15 11 9 7 6 4 3 3 2 1 6 7 3 8 12 10 11 7 8 5 2 7 4 5 2 4 9 10 13 13 12 9 14 16 13 11 10 11 7 8 11
28 30 29 31 25 12 8 7 7 6 4 3 5 3 6 3 7 8 13 9 8 6 1 3 2 2 6 3 4 7 7 11 5 4 5 8 12 5 3 5 6 5 6 5 5
27 29 31 31 31 15 9 8 8 6 4 4 3 5 3 4 9 14 15 11 11 8 6 3 4 5 6 11 10 11 12 9 7 5 6 9 8 6 6 9 7 8 7 7 6
28 30 31 32 35 23 4 1 3 8 4 4 4 6 6 3 9 13 14 9 13 11 8 10 8 10 11 10 12 10 11 8 10 7 8 11 13 12 12 12 11 11 10 9 9
29 31 32 31 36 21 5 2 5 6 8 8 3 4 4 2 6 12 15 14 11 13 14 13 11 14 14 12 11 7 9 11 9 9 10 12 12 10 11 11 13 14 12 12 12
29 31 32 32 33 15 6 5 3 3 8 12 15 14 13 1 5 10 15 14 12 16 14 8 15 14 9 8 11 12 13 14 11 9 7 15 16 14 14 15 14 14 14 14 14
30 31 33 32 27 5 8 10 2 5 6 1 3 5 7 15 8 12 18 18 14 16 14 17 2 5 11 13 14 14 14 12 12 11 13 17 19 19 16 13 13 16 16 15 13
31 32 34 33 6 6 8 3 5 4 5 6 5 5 5 6 7 10 16 13 10 14 14 12 16 15 10 12 12 13 12 13 13 13 13 4 14 16 16 11 14 12 11 12 3
34 36 35 17 12 6 2 1 3 4 4 4 6 6 7 9 8 9 14 10 14 10 8 6 7 8 14 15 12 14 10 9 12 14 17 19 12 14 12 12 12 11 8 4 2
40 43 28 4 10 10 7 6 5 6 4 5 5 6 10 9 5 5 9 8 4 13 13 18 6 7 10 6 8 8 11 15 16 13 16 20 18 15 11 9 2 6 6 1 4
44 20 7 4 2 2 3 5 5 5 2 4 3 5 4 6 8 5 9 15 10 10 14 17 20 20 16 14 15 14 13 12 15 14 16 14 8 13 13 7 13 11 3 3 6
35 10 6 3 6 5 3 6 6 2 2 1 1 3 5 3 5 2 3 10 11 15 15 15 15 15 9 16 17 16 14 13 19 15 15 6 10 6 2 6 9 4 4 5 7
18 5 8 11 1 3 5 6 4 2 3 4 5 6 6 3 4 3 6 8 4 3 9 10 16 4 7 10 9 11 11 13 19 20 17 17 19 17 12 10 7 10 5 7 12
8 2 12 8 3 5 4 3 0 5 5 4 5 4 6 4 5 2 5 7 7 5 4 8 14 16 13 7 13 12 11 10 10 12 15 10 10 8 10 14 8 8 7 10 14
4 2 10 6 2 4 3 3 1 6 7 5 3 5 5 7 7 9 5 6 9 9 8 8 5 9 11 14 14 11 14 15 14 13 12 13 9 6 5 6 5 8 10 16 16
5 2 10 4 4 0 2 3 2 4 3 3 6 8 9 5 8 7 12 12 6 4 2 2 4 12 19 13 13 12 17 17 11 9 11 10 15 16 10 11 3 13 15 16 13
4 3 6 7 2 2 1 2 3 7 6 4 4 3 4 8 4 8 11 4 9 6 4 2 6 5 7 15 14 14 17 14 17 16 20 16 10 5 6 8 14 15 14 13 10
4 2 3 5 3 3 3 2 4 6 7 6 6 4 5 5 6 7 6 5 1 3 8 2 7 13 13 13 6 11 12 12 14 11 17 19 24 19 18 17 17 16 16 12 11
4 2 4 2 3 3 1 1 5 5 4 7 3 5 5 3 7 10 13 13 12 9 6 5 5 15 20 21 19 19 20 19 21 22 22 21 25 23 21 19 18 14 12 13 14
3 3 2 2 1 2 3 2 3 2 1 3 4 8 8 6 7 5 6 8 9 8 10 6 4 14 18 16 16 20 21 23 25 24 26 25 25 19 17 9 13 13 14 16 16
2 0 4 3 1 2 1 1 3 8 6 5 6 7 11 13 11 13 16 17 13 9 8 4 5 4 7 10 11 14 20 20 18 20 17 19 16 10 10 13 11 16 17 18 19
Wind_Direction
349 342 333 321 314 307 300 296 300 304 305 308 311 308 313 307 307 273 250 242 216 193 160 160 170 173 185 183 197 215 236 240 228 235 229 235 229 168 284 269 274 281 287 313 325
354 346 334 323 312 306 300 298 298 299 302 307 306 310 309 311 296 263 247 226 211 170 182 181 168 174 186 192 189 213 227 243 207 257 259 267 261 272 277 270 253 257 255 276 301
356 349 338 326 314 305 302 296 295 296 300 303 309 309 311 326 266 137 195 176 181 163 194 197 180 191 191 190 189 206 240 243 232 247 266 261 263 262 259 260 259 260 266 268 283
356 353 345 337 325 309 299 295 294 296 298 302 304 306 316 287 251 58 161 158 153 174 179 178 184 196 202 203 191 230 236 254 258 265 253 256 269 266 250 263 282 271 269 275 268
7 356 350 346 334 317 301 293 290 290 291 296 303 299 307 231 253 50 152 169 164 182 195 190 192 208 213 204 195 232 234 240 249 255 262 274 262 262 265 267 259 258 268 272 272
16 11 356 346 339 326 308 293 292 292 292 298 293 40 259 242 103 141 151 163 184 185 181 197 210 222 204 207 217 172 247 248 249 256 254 257 265 252 247 218 254 259 266 264 266
10 11 10 3 339 331 319 297 286 275 277 273 259 302 259 266 153 170 167 176 175 184 177 173 190 216 160 185 211 231 260 243 244 246 238 255 261 248 250 258 260 268 267 265 267
1 4 4 6 357 324 313 298 281 264 242 207 164 224 259 197 195 186 184 184 191 198 182 149 259 298 262 75 195 243 249 255 177 256 207 215 260 170 296 210 233 243 261 247 256
356 357 358 358 355 333 303 295 284 241 195 176 178 245 264 176 212 202 193 192 184 193 195 160 235 252 198 228 226 210 254 209 237 228 252 226 260 175 218 243 261 255 256 262 256
351 352 351 352 349 339 303 356 96 110 138 178 254 252 229 196 166 180 188 198 183 179 183 206 216 224 222 220 237 242 220 217 244 167 227 257 254 258 256 263 254 253 256 265 268
349 348 345 345 343 335 155 160 199 184 205 257 267 276 131 125 161 183 176 186 187 198 211 205 228 223 227 223 280 266 259 257 257 260 258 261 265 266 261 260 257 253 257 262 265
345 346 344 340 338 341 175 244 335 358 290 245 251 248 261 226 203 179 184 193 201 211 209 201 233 247 245 231 234 238 249 253 266 263 253 273 274 269 262 260 256 261 260 262 266
342 342 339 336 330 292 265 261 216 327 273 198 202 231 222 200 212 179 192 205 207 222 212 239 181 31 226 220 233 235 250 262 272 292 273 264 266 256 246 239 261 253 255 265 269
337 337 336 330 302 317 279 203 226 264 272 141 178 144 160 186 214 206 202 204 220 242 229 257 258 239 235 241 224 250 239 257 272 274 276 318 287 289 270 256 250 254 260 259 346
335 333 333 322 286 262 6 281 274 212 270 125 109 133 157 189 126 182 196 212 238 215 228 235 226 221 233 243 240 260 275 261 275 276 283 271 265 263 247 244 247 254 287 41 310
336 335 323 304 213 245 289 290 227 229 222 122 125 154 169 194 130 128 193 222 281 252 229 264 267 268 265 282 227 259 267 259 260 265 262 267 258 271 261 267 240 261 196 231 327
340 345 345 179 59 39 295 215 206 248 112 117 102 186 195 173 186 161 183 203 222 221 231 244 246 246 245 262 254 235 260 268 262 246 256 253 259 274 294 259 284 310 308 276 301
346 13 357 310 289 305 221 215 236 65 9 50 296 208 198 214 128 341 253 228 215 255 276 279 267 244 243 240 259 270 259 254 272 275 283 229 244 242 61 289 309 253 240 273 325
353 6 30 9 126 180 232 228 3 15 350 321 258 251 178 197 308 328 279 279 283 268 261 282 254 277 271 273 259 278 243 273 281 275 272 267 261 255 242 251 215 232 255 310 331
331 317 36 349 8 259 246 12 122 18 339 301 276 310 256 214 256 179 240 255 244 259 319 289 288 270 263 256 248 256 277 260 229 271 270 255 257 265 202 244 191 238 275 315 320
285 208 11 358 280 222 274 48 1 19 341 323 295 267 300 273 273 292 257 255 232 246 224 272 257 260 266 239 252 234 243 240 270 269 272 279 268 74 282 260 226 271 312 322 321
300 183 0 333 226 251 305 360 299 337 329 297 297 294 282 286 269 244 252 241 134 78 243 95 286 264 263 264 249 239 266 272 256 258 261 280 264 277 251 253 246 283 318 310 307
342 349 360 302 271 138 71 271 351 345 326 306 279 264 292 280 282 275 279 317 273 225 191 95 228 266 260 227 236 252 254 248 258 269 257 256 253 193 198 243 248 297 307 298 292
298 233 72 57 77 345 1 1 321 345 301 312 302 327 302 279 256 272 262 279 252 286 200 224 248 251 263 289 260 275 276 262 258 256 264 257 268 265 276 290 312 306 297 292 288
353 60 351 28 64 13 319 349 320 349 343 308 263 279 336 280 274 246 244 259 283 272 228 185 252 252 261 270 276 273 270 267 260 257 257 271 275 281 293 311 307 307 296 276 276
344 323 147 110 242 292 152 73 321 3 293 340 304 300 290 252 238 280 292 274 259 274 238 196 252 259 263 259 265 269 268 264 260 262 265 269 275 286 293 300 290 286 279 284 297
22 284 299 127 208 291 9 25 308 328 279 278 312 320 288 287 271 274 275 275 264 238 223 230 237 237 253 265 282 274 257 254 260 259 262 261 272 312 294 290 288 286 297 296 296
Height
804 801 798 797 795 793 792 791 790 789 788 787 786 784 782 780 779 779 773 769 768 770 772 772 772 771 770 768 768 767 776 771 769 769 761 761 761 754 758 762 755 753 753 751 754
803 800 797 795 793 792 790 788 788 787 786 785 784 782 781 779 779 773 767 765 765 767 770 767 766 768 767 765 766 767 771 762 757 759 760 758 762 760 765 761 757 754 750 751 752
802 799 796 793 791 789 788 786 785 785 784 783 781 780 779 779 776 758 763 764 765 768 770 770 767 765 764 762 764 763 767 752 761 762 758 765 763 758 764 765 755 753 751 749 748
801 797 794 791 789 787 785 784 783 783 782 781 780 779 778 781 762 760 761 764 766 769 768 766 764 765 763 766 758 770 760 758 759 756 760 761 758 759 760 757 749 748 750 749 745
800 796 793 790 787 785 783 782 781 780 780 780 780 778 779 772 760 761 761 763 766 767 766 762 762 758 761 758 764 767 757 758 757 758 757 755 758 758 755 750 747 746 748 744 741
800 796 792 789 786 784 782 780 779 778 778 779 778 777 778 767 760 761 763 765 765 766 764 761 758 757 756 759 762 754 756 756 754 753 753 760 753 752 750 745 746 745 744 741 741
801 796 791 787 784 782 780 779 778 777 777 777 776 778 773 758 760 761 763 764 765 765 763 764 762 760 756 761 756 757 764 753 751 750 753 751 759 753 746 743 746 743 743 743 741
801 797 792 787 782 780 778 777 776 776 776 776 776 779 764 759 760 761 762 763 765 765 764 764 763 758 757 758 760 763 760 761 739 748 747 758 757 738 743 745 745 741 741 741 739
799 795 791 786 781 777 776 774 773 773 775 775 778 776 756 758 758 758 761 760 763 765 765 766 763 760 763 765 763 761 761 757 750 747 749 755 748 742 740 740 743 740 737 736 735
798 792 788 784 779 775 773 773 772 773 776 777 776 775 756 748 751 754 758 759 760 762 765 765 762 763 760 759 762 750 761 757 758 749 751 752 749 740 736 737 737 735 733 733 732
796 791 785 781 776 771 772 776 775 773 771 753 747 749 748 749 752 753 757 758 757 758 763 759 763 761 750 751 749 757 761 761 752 747 755 749 745 741 735 733 733 730 729 729 728
793 789 784 779 774 770 770 766 760 764 756 746 749 747 749 751 749 748 754 757 758 760 754 761 761 744 743 752 759 760 761 756 747 744 751 746 742 733 731 729 727 726 724 723 721
790 786 781 777 773 770 768 764 762 762 756 742 745 746 746 750 748 745 750 748 754 756 753 756 744 747 747 755 761 756 756 750 752 742 741 743 742 730 720 722 723 719 717 717 719
788 783 778 772 773 768 762 761 762 761 752 739 740 741 745 742 749 742 744 746 749 752 749 749 738 744 751 752 749 754 739 744 750 752 752 732 753 731 721 721 720 717 715 713 716
784 778 773 773 770 765 762 761 760 760 754 733 739 740 741 740 739 744 742 744 749 748 749 745 744 746 749 743 738 747 736 745 745 748 746 739 742 722 714 725 719 714 712 718 725
778 770 765 763 766 761 761 761 760 756 753 733 733 736 741 739 737 743 745 743 742 744 744 742 730 741 736 734 740 735 744 740 738 741 749 732 733 724 713 709 712 712 714 725 727
772 764 760 760 758 760 761 759 755 752 730 737 734 730 731 735 736 737 746 751 753 755 750 738 735 729 730 740 732 737 747 752 747 737 732 709 727 719 707 709 711 712 715 722 723
767 763 763 762 760 760 760 754 757 743 740 736 734 730 733 735 739 741 742 743 741 746 748 747 748 726 724 732 734 727 731 743 748 734 721 707 727 715 711 708 711 717 721 719 720
764 765 762 762 759 760 755 754 748 746 744 744 736 737 739 739 746 749 748 748 746 749 761 750 743 728 732 727 730 731 741 725 735 726 730 719 708 699 699 709 712 717 719 719 721
767 763 761 762 760 760 751 759 753 749 747 744 745 744 744 743 752 756 755 751 752 751 753 754 760 737 735 736 731 735 727 744 735 751 745 714 711 712 713 708 710 716 718 719 718
766 755 764 760 760 752 753 754 754 753 750 752 750 750 751 751 752 756 762 752 749 756 760 768 777 752 735 740 738 737 736 731 732 730 741 744 724 704 711 706 713 717 716 715 715
765 752 763 760 752 752 752 761 766 758 753 753 753 752 753 753 757 760 762 754 755 765 767 770 775 754 734 719 722 731 735 730 738 743 732 740 729 701 704 705 711 715 711 714 715
766 762 762 759 753 753 759 761 763 764 759 756 754 756 755 758 768 762 757 754 756 763 776 780 775 760 738 725 725 733 729 726 727 729 737 740 718 699 707 711 708 705 711 712 713
770 759 762 763 768 766 767 761 765 766 765 763 761 763 765 774 769 765 763 760 762 766 773 778 770 750 741 730 738 738 733 728 731 739 727 716 708 699 694 696 698 703 705 708 711
775 778 781 767 768 772 771 770 768 770 767 768 764 764 770 776 769 767 770 769 764 763 771 780 769 753 740 736 733 732 729 727 727 723 726 715 709 701 697 700 702 703 705 708 707
777 775 777 778 778 774 775 767 773 778 783 778 779 774 774 780 782 779 777 772 772 762 762 770 764 752 742 733 730 729 723 721 716 711 707 705 703 694 695 701 705 703 702 701 699
789 787 781 781 777 775 771 774 775 777 772 771 777 784 777 772 775 775 770 767 768 769 767 770 761 754 741 729 731 728 711 707 704 700 701 704 696 694 700 700 703 700 700 699 697